Tracking 30923 objects as of 1-Jul-2025
HD Live streaming from Space Station
objects crossing your sky now

STARLINK-3095

Track STARLINK-3095 now!
10-day predictions
STARLINK-3095 is classified as:


NORAD ID: 49160
Int'l Code: 2021-082AG
Perigee: 576.8 km
Apogee: 581.6 km
Inclination: 70.0 °
Period: 96.1 minutes
Semi major axis: 6950 km
RCS: Unknown
Launch date: September 14, 2021
Source: United States (US)
Launch site: AIR FORCE WESTERN TEST RANGE (AFWTR)
Your satellite tracking list
SL-8 DEB
Track 1 satellite(s)




NASA's NSSDC Master Catalog

Two Line Element Set (TLE):
1 49160U 21082AG  25181.79103782 -.00000091  00000-0  15757-6 0  9999
2 49160  69.9994 209.5602 0003406 266.7571  93.3198 14.98330437209319
Source of the keplerian elements: AFSPC